sat.trackr.live / text

‹ back to catalog

STARLINK-36928

NORAD 68020 · 2026-040F

PAYLOAD ACTIVE UNKNOWN

§ Identity

Operator
Country
US
Launch date
2026-03-01
Launch site
AFWTR
Launch vehicle
Mass (kg)
RCS (m²)

Purposes: comms

External: N2YO · Heavens-Above · Gunter

§ Orbital elements

Epoch: 2026-09-20T02:30:17.991360Z

Period
93.91 min
Inclination
97.2869°
Eccentricity
0.0002157
Mean motion
15.33458813 rev/d
Perigee alt
464.0 km
Apogee alt
467.0 km
Semi-major
6,843.6 km
B*
5.8157e-4
RAAN
210.3961°
Arg perigee
92.8544°
Mean anomaly
267.2946°
Rev number
3,125

§ Raw data

STARLINK-369281 68020U 26040F   26263.10437490  .00018756  00000+0  58157-3 0  99902 68020  97.2869 210.3961 0002157  92.8544 267.2946 15.33458813 31256

JSON: /api/v1/satellites/68020 · /tle

For live sub-satellite position, see the globe view (requires WebGL).

§ Visibility from observer

Set your observer location to see the next 7 days of passes ≥ 10°. The values pass through the URL so the page stays shareable.

No JS? Fill the form by hand. The geolocation button needs JavaScript.